This is the latest recevied weather packets stored in our database for station/object CE3PA-5. If no packets are shown the sender has not sent any weather packets the latest 10 day(s).
| Time | Temp. | Humidity | Pressure | Rain* | Wind** | Luminosity | Snow |
|---|---|---|---|---|---|---|---|
| 1777545644 | 6.67° C | 21% | 752.4 hPa | - | - | - | - |
| 1777544744 | 6.67° C | 21% | 752.3 hPa | - | - | - | - |
| 1777543845 | 7.22° C | 21% | 752.4 hPa | - | - | - | - |
| 1777542044 | 7.22° C | 21% | 752.5 hPa | - | - | - | - |
| 1777541144 | 7.22° C | 21% | 752.4 hPa | - | - | - | - |
| 1777540243 | 6.67° C | 21% | 752.5 hPa | - | - | - | - |
| 1777539343 | 7.22° C | 21% | 752.6 hPa | - | - | - | - |
| 1777538442 | 7.22° C | 21% | 752.6 hPa | - | - | - | - |
| 1777537542 | 7.22° C | 21% | 752.6 hPa | - | - | - | - |
| 1777533942 | 7.22° C | 21% | 752.8 hPa | - | - | - | - |
| 1777531241 | 7.22° C | 21% | 753.1 hPa | - | - | - | - |
| 1777530341 | 7.78° C | 21% | 753.1 hPa | - | - | - | - |
| 1777529441 | 7.22° C | 21% | 753.1 hPa | - | - | - | - |
| 1777526744 | 7.78° C | 21% | 753.2 hPa | - | - | - | - |
| 1777524944 | 7.78° C | 22% | 753.3 hPa | - | - | - | - |
| 1777522243 | 7.78° C | 22% | 753.6 hPa | - | - | - | - |
| 1777520443 | 8.89° C | 22% | 753.8 hPa | - | - | - | - |
| 1777519543 | 9.44° C | 22% | 753.8 hPa | - | - | - | - |
| 1777518643 | 9.44° C | 22% | 753.9 hPa | - | - | - | - |
| 1777516842 | 10° C | 22% | 754 hPa | - | - | - | - |
| 1777513241 | 10.56° C | 23% | 754.4 hPa | - | - | - | - |
| 1777512341 | 10.56° C | 23% | 754.5 hPa | - | - | - | - |
| 1777509641 | 10.56° C | 23% | 754.5 hPa | - | - | - | - |
| 1777507841 | 10.56° C | 23% | 754.6 hPa | - | - | - | - |
| 1777504243 | 12.78° C | 24% | 754.5 hPa | - | - | - | - |
* Rain since midnight (hover to see other rain measurements)
** Current wind speed in m/s (hover to see current wind gust speed)